When you browse on this site, cookies collect data to enhance your experience and personalize the content and advertising you see.
Visit our Privacy Policy to learn more. By continuing to use the site, you agree to this use of cookies and data.
  • în România
  • Lista ţărilor
  • Pe 7 zile
  • Temperatura apei
  • Hartă satelitară
  • Meteo pe hartă
  • Widget-uri
  • user-avatar
    Intrare

    Meteo pe oră la Franceville

    Astăzi, 21 Martie, Joi

    Timp Temperatura Precipitaţii Vânt Presiune Umiditate
    00:00 +24°C° 0 mm 0 m/s 730 mmHg 85%
    01:00 +24°C° 0 mm 0 m/s 729 mmHg 88%
    02:00 +23°C° 0 mm 0 m/s 729 mmHg 88%
    03:00 +23°C° 0 mm 0 m/s 729 mmHg 89%
    04:00 +23°C° 0 mm 0 m/s 729 mmHg 90%
    05:00 +23°C° 0 mm 0 m/s 729 mmHg 89%
    06:00 +23°C° 0 mm 0 m/s 730 mmHg 88%
    07:00 +24°C° 0 mm 0 m/s 730 mmHg 87%
    08:00 +28°C° 0 mm 1 m/s 730 mmHg 75%
    09:00 +31°C° 0 mm 1 m/s 731 mmHg 64%
    10:00 +34°C° 0 mm 1 m/s 731 mmHg 52%
    11:00 +36°C° 0 mm 1 m/s 730 mmHg 47%
    12:00 +37°C° 0 mm 1 m/s 730 mmHg 41%
    13:00 +40°C° 0 mm 1 m/s 729 mmHg 36%
    14:00 +40°C° 0 mm 1 m/s 728 mmHg 36%
    15:00 +37°C° 0 mm 0 m/s 728 mmHg 36%
    16:00 +36°C° 0 mm 0 m/s 727 mmHg 36%
    17:00 +34°C° 0 mm 0 m/s 727 mmHg 43%
    18:00 +32°C° 0 mm 0 m/s 727 mmHg 50%
    19:00 +29°C° 0 mm 0 m/s 728 mmHg 57%
    20:00 +30°C° 0.3 mm 1 m/s 728 mmHg 65%
    21:00 +29°C° 0.3 mm 1 m/s 729 mmHg 74%
    22:00 +28°C° 0.3 mm 1 m/s 729 mmHg 82%
    23:00 +27°C° 0.3 mm 1 m/s 729 mmHg 85%

    Mâine, 22 Martie, Vineri

    Timp Temperatura Precipitaţii Vânt Presiune Umiditate
    00:00 +27°C° 0.3 mm 1 m/s 729 mmHg 89%
    01:00 +26°C° 0.3 mm 1 m/s 729 mmHg 92%
    02:00 +24°C° 0.1 mm 0 m/s 729 mmHg 92%
    03:00 +24°C° 0.1 mm 0 m/s 729 mmHg 93%
    04:00 +23°C° 0.1 mm 0 m/s 729 mmHg 94%
    05:00 +23°C° 0.1 mm 0 m/s 729 mmHg 93%
    06:00 +24°C° 0.1 mm 0 m/s 729 mmHg 93%
    07:00 +24°C° 0.1 mm 0 m/s 730 mmHg 92%
    08:00 +27°C° 0 mm 0 m/s 730 mmHg 79%
    09:00 +32°C° 0 mm 1 m/s 731 mmHg 66%
    10:00 +34°C° 0 mm 1 m/s 731 mmHg 53%
    11:00 +37°C° 0 mm 1 m/s 731 mmHg 47%
    12:00 +37°C° 0 mm 0 m/s 730 mmHg 40%
    13:00 +39°C° 0 mm 0 m/s 730 mmHg 34%
    14:00 +41°C° 0.1 mm 1 m/s 729 mmHg 37%
    15:00 +39°C° 0.1 mm 1 m/s 729 mmHg 41%
    16:00 +37°C° 0.1 mm 2 m/s 728 mmHg 44%
    17:00 +33°C° 16.5 mm 1 m/s 728 mmHg 61%
    18:00 +29°C° 16.5 mm 1 m/s 729 mmHg 78%
    19:00 +25°C° 16.5 mm 1 m/s 729 mmHg 94%
    20:00 +25°C° 0 mm 1 m/s 730 mmHg 94%
    21:00 +25°C° 0 mm 1 m/s 730 mmHg 94%
    22:00 +25°C° 0 mm 1 m/s 731 mmHg 93%
    23:00 +23°C° 0 mm 0 m/s 730 mmHg 93%

    Poimâine, 23 Martie, Sâmbătă

    Timp Temperatura Precipitaţii Vânt Presiune Umiditate
    00:00 +23°C° 0 mm 0 m/s 730 mmHg 93%
    01:00 +23°C° 0 mm 0 m/s 730 mmHg 94%
    02:00 +22°C° 0 mm 0 m/s 730 mmHg 94%
    03:00 +22°C° 0 mm 0 m/s 730 mmHg 95%
    04:00 +22°C° 0 mm 0 m/s 730 mmHg 96%
    05:00 +22°C° 0 mm 0 m/s 730 mmHg 95%
    06:00 +22°C° 0 mm 0 m/s 731 mmHg 94%
    07:00 +23°C° 0 mm 0 m/s 731 mmHg 94%
    08:00 +25°C° 0 mm 0 m/s 732 mmHg 82%
    09:00 +28°C° 0 mm 0 m/s 732 mmHg 71%
    10:00 +32°C° 0 mm 1 m/s 733 mmHg 59%
    11:00 +31°C° 1.6 mm 1 m/s 732 mmHg 70%
    12:00 +29°C° 1.6 mm 1 m/s 731 mmHg 80%
    13:00 +28°C° 1.6 mm 1 m/s 730 mmHg 91%
    14:00 +29°C° 0.1 mm 1 m/s 730 mmHg 84%
    15:00 +30°C° 0.1 mm 1 m/s 730 mmHg 77%
    16:00 +29°C° 0.1 mm 0 m/s 729 mmHg 70%
    17:00 +27°C° 1.6 mm 0 m/s 730 mmHg 77%
    18:00 +25°C° 1.6 mm 0 m/s 730 mmHg 84%
    19:00 +24°C° 1.6 mm 0 m/s 730 mmHg 91%
    20:00 +25°C° 0 mm 1 m/s 730 mmHg 92%
    21:00 +25°C° 0 mm 1 m/s 730 mmHg 92%
    22:00 +25°C° 0 mm 2 m/s 730 mmHg 92%
    23:00 +24°C° 0 mm 1 m/s 730 mmHg 93%

    24 Martie, Duminică

    Timp Temperatura Precipitaţii Vânt Presiune Umiditate
    00:00 +24°C° 0 mm 1 m/s 730 mmHg 94%
    01:00 +22°C° 0 mm 0 m/s 730 mmHg 95%
    02:00 +22°C° 0 mm 0 m/s 730 mmHg 96%
    03:00 +21°C° 0 mm 0 m/s 730 mmHg 97%
    04:00 +21°C° 0 mm 0 m/s 730 mmHg 97%
    05:00 +21°C° 0 mm 0 m/s 730 mmHg 96%
    06:00 +22°C° 0 mm 0 m/s 731 mmHg 95%
    07:00 +22°C° 0 mm 0 m/s 731 mmHg 94%
    08:00 +25°C° 0 mm 0 m/s 731 mmHg 82%
    09:00 +29°C° 0 mm 1 m/s 732 mmHg 70%
    10:00 +32°C° 0 mm 1 m/s 732 mmHg 58%
    11:00 +34°C° 0 mm 1 m/s 731 mmHg 52%
    12:00 +35°C° 0 mm 1 m/s 731 mmHg 45%
    13:00 +37°C° 0 mm 1 m/s 730 mmHg 39%
    14:00 +36°C° 0 mm 1 m/s 729 mmHg 43%
    15:00 +35°C° 0 mm 1 m/s 729 mmHg 47%
    16:00 +34°C° 0 mm 1 m/s 728 mmHg 51%
    17:00 +32°C° 0 mm 1 m/s 728 mmHg 57%
    18:00 +31°C° 0 mm 1 m/s 729 mmHg 63%
    19:00 +29°C° 0 mm 1 m/s 729 mmHg 69%
    20:00 +28°C° 1.1 mm 1 m/s 730 mmHg 77%
    21:00 +26°C° 1.1 mm 2 m/s 730 mmHg 85%
    22:00 +25°C° 1.1 mm 2 m/s 730 mmHg 93%
    23:00 +25°C° 0.9 mm 2 m/s 730 mmHg 94%

    25 Martie, Luni

    Timp Temperatura Precipitaţii Vânt Presiune Umiditate
    00:00 +25°C° 0.9 mm 1 m/s 730 mmHg 95%
    01:00 +24°C° 0.9 mm 1 m/s 730 mmHg 96%
    02:00 +24°C° 0.1 mm 1 m/s 730 mmHg 96%
    03:00 +24°C° 0.1 mm 1 m/s 730 mmHg 96%
    04:00 +22°C° 0.1 mm 0 m/s 730 mmHg 96%
    05:00 +22°C° 0 mm 0 m/s 730 mmHg 96%
    06:00 +22°C° 0 mm 0 m/s 731 mmHg 95%
    07:00 +23°C° 0 mm 0 m/s 731 mmHg 95%
    08:00 +24°C° 0 mm 0 m/s 732 mmHg 85%
    09:00 +28°C° 0 mm 1 m/s 732 mmHg 75%
    10:00 +30°C° 0 mm 1 m/s 732 mmHg 65%
    11:00 +32°C° 0 mm 1 m/s 731 mmHg 56%
    12:00 +35°C° 0 mm 2 m/s 730 mmHg 47%
    13:00 +37°C° 0 mm 2 m/s 730 mmHg 38%
    14:00 +37°C° 0 mm 2 m/s 729 mmHg 38%
    15:00 +36°C° 0 mm 1 m/s 729 mmHg 37%
    16:00 +37°C° 0 mm 1 m/s 728 mmHg 37%
    17:00 +34°C° 0 mm 1 m/s 728 mmHg 45%
    18:00 +32°C° 0 mm 1 m/s 729 mmHg 52%
    19:00 +28°C° 0 mm 0 m/s 729 mmHg 60%
    20:00 +26°C° 1.1 mm 0 m/s 730 mmHg 69%
    21:00 +25°C° 1.1 mm 0 m/s 730 mmHg 79%
    22:00 +24°C° 1.1 mm 0 m/s 731 mmHg 89%
    23:00 +26°C° 1.5 mm 1 m/s 730 mmHg 91%

    26 Martie, Marţi

    Timp Temperatura Precipitaţii Vânt Presiune Umiditate
    00:00 +25°C° 1.5 mm 1 m/s 730 mmHg 92%
    01:00 +25°C° 1.5 mm 1 m/s 730 mmHg 94%
    02:00 +25°C° 0.1 mm 1 m/s 730 mmHg 94%
    03:00 +25°C° 0.1 mm 1 m/s 730 mmHg 94%
    04:00 +25°C° 0.1 mm 1 m/s 730 mmHg 94%
    05:00 +25°C° 0.3 mm 1 m/s 730 mmHg 95%
    06:00 +25°C° 0.3 mm 1 m/s 731 mmHg 96%
    07:00 +25°C° 0.3 mm 1 m/s 731 mmHg 96%
    08:00 +26°C° 0 mm 1 m/s 731 mmHg 93%
    09:00 +26°C° 0 mm 1 m/s 732 mmHg 90%
    10:00 +27°C° 0 mm 1 m/s 732 mmHg 87%
    11:00 +30°C° 0 mm 1 m/s 731 mmHg 72%
    12:00 +33°C° 0 mm 1 m/s 731 mmHg 57%
    13:00 +36°C° 0 mm 1 m/s 730 mmHg 42%
    14:00 +36°C° 0 mm 1 m/s 730 mmHg 41%
    15:00 +34°C° 0 mm 0 m/s 729 mmHg 41%
    16:00 +34°C° 0 mm 0 m/s 729 mmHg 40%
    17:00 +32°C° 0 mm 0 m/s 729 mmHg 46%
    18:00 +30°C° 0 mm 0 m/s 730 mmHg 52%
    19:00 +28°C° 0 mm 0 m/s 730 mmHg 59%
    20:00 +27°C° 0.1 mm 0 m/s 730 mmHg 64%
    21:00 +26°C° 0.1 mm 0 m/s 731 mmHg 70%
    22:00 +25°C° 0.1 mm 0 m/s 731 mmHg 76%
    23:00 +24°C° 0.9 mm 0 m/s 731 mmHg 82%
    Arată mai mult